GW2011 Weather Reports


Display with metric or nautical units.
time (UTC)temp
F
wind
direction
speed
MPH
gust
MPH
rain 1hr
in
rain 24hr
in
rain mn
in
humidity
%
barometer
mb
20260509121013 45 0 0.0 3.0 0.00 0.01 0.01 84 1002.6
20260509120512 45 296 0.0 3.0 0.00 0.01 0.01 84 1002.6
20260509120032 45 0 0.0 3.0 0.00 0.01 0.01 84 1002.5
20260509115514 46 352 0.0 4.0 0.00 0.01 0.01 84 1002.4
20260509115042 46 336 1.0 4.0 0.00 0.01 0.01 84 1002.3
20260509114536 46 10 0.0 4.0 0.00 0.01 0.01 84 1002.3
20260509114017 46 49 1.0 4.0 0.00 0.01 0.01 83 1002.2
20260509113514 46 30 1.0 5.0 0.00 0.01 0.01 83 1002.1
20260509113035 46 330 2.0 5.0 0.00 0.01 0.01 83 1002.1
20260509112515 46 343 2.0 4.0 0.00 0.01 0.01 83 1001.9
20260509112015 46 320 1.0 4.0 0.00 0.01 0.01 83 1001.9
20260509111533 46 0 0.0 4.0 0.00 0.01 0.01 83 1001.8
20260509111014 47 334 1.0 4.0 0.00 0.01 0.01 83 1001.6
20260509110516 47 0 1.0 3.0 0.00 0.01 0.01 83 1001.5
20260509110032 47 336 0.0 3.0 0.00 0.01 0.01 83 1001.5
20260509105514 48 311 1.0 4.0 0.00 0.01 0.01 82 1001.4
20260509105016 48 290 1.0 6.0 0.00 0.01 0.01 82 1001.3
20260509104546 48 288 2.0 7.0 0.00 0.01 0.01 82 1001.0
20260509104013 49 288 2.0 7.0 0.00 0.01 0.01 82 1001.0
20260509103516 49 319 2.0 7.0 0.00 0.01 0.01 82 1001.0
20260509103035 49 325 2.0 6.0 0.00 0.01 0.01 82 1000.7
20260509102513 49 318 2.0 4.0 0.00 0.01 0.01 83 1000.7
20260509102015 49 332 1.0 5.0 0.00 0.01 0.01 84 1000.6
20260509101537 49 291 2.0 5.0 0.00 0.01 0.01 84 1000.4
20260509101015 49 0 1.0 4.0 0.00 0.01 0.01 84 1000.3
20260509100516 49 280 2.0 4.0 0.00 0.01 0.01 83 1000.3
20260509100033 49 268 1.0 4.0 0.00 0.01 0.01 83 1000.2
20260509095516 49 267 1.0 5.0 0.00 0.01 0.01 83 1000.1
20260509095016 49 288 2.0 7.0 0.00 0.01 0.01 83 1000.0
20260509094535 49 298 2.0 7.0 0.00 0.01 0.01 83 1000.1
20260509094015 49 278 3.0 6.0 0.01 0.01 0.01 84 1000.1
20260509093515 49 269 2.0 6.0 0.01 0.01 0.01 84 999.9
20260509093032 49 283 2.0 4.0 0.01 0.01 0.01 84 1000.0
20260509092512 49 279 2.0 3.0 0.01 0.01 0.01 84 999.7
20260509092015 49 267 2.0 3.0 0.01 0.01 0.01 84 999.6
20260509091536 49 276 1.0 4.0 0.01 0.01 0.01 84 999.8
20260509091014 49 276 2.0 4.0 0.01 0.01 0.01 84 999.6
20260509090514 49 268 1.0 3.0 0.01 0.01 0.01 84 999.6
20260509090047 49 268 1.0 3.0 0.01 0.01 0.01 84 999.6
20260509085516 49 0 0.0 2.0 0.01 0.01 0.01 84 999.8
20260509085016 49 296 0.0 3.0 0.01 0.01 0.01 84 999.8
20260509084533 49 223 1.0 4.0 0.01 0.01 0.01 83 999.6
20260509084015 49 223 1.0 4.0 0.00 0.00 0.00 82 999.4
20260509083515 49 126 1.0 4.0 0.00 0.00 0.00 82 999.9
20260509083032 49 0 1.0 3.0 0.00 0.00 0.00 81 1000.1
20260509082515 50 0 0.0 2.0 0.00 0.00 0.00 80 1000.3
20260509082015 50 42 0.0 2.0 0.00 0.00 0.00 79 1000.3
20260509081547 50 0 0.0 2.0 0.00 0.00 0.00 78 1000.0
20260509081014 50 0 0.0 5.0 0.00 0.00 0.00 78 1000.1
20260509080515 50 37 2.0 5.0 0.00 0.00 0.00 77 999.9
20260509080034 50 0 0.0 5.0 0.00 0.00 0.00 76 1000.1
20260509075515 51 36 1.0 6.0 0.00 0.00 0.00 75 1000.0
20260509075015 51 40 2.0 6.0 0.00 0.00 0.00 75 1000.1
20260509074534 51 0 2.0 6.0 0.00 0.00 0.00 74 1000.2
20260509074013 51 31 2.0 8.0 0.00 0.00 0.00 74 1000.3
20260509073516 51 19 1.0 8.0 0.00 0.00 0.00 73 1000.2
20260509073044 52 11 1.0 4.0 0.00 0.00 0.00 72 999.9
20260509072515 52 30 2.0 4.0 0.00 0.00 0.00 72 999.8
20260509072013 52 18 1.0 4.0 0.00 0.00 0.00 70 999.7
20260509071542 52 0 1.0 6.0 0.00 0.00 0.00 68 999.9
20260509071015 52 23 2.0 6.0 0.00 0.00 0.00 67 999.9
20260509070517 52 0 0.0 6.0 0.00 0.00 0.00 65 1000.0
20260509070041 52 328 1.0 6.0 0.00 0.00 0.00 62 999.7
20260509065519 52 21 1.0 4.0 0.00 0.00 0.00 60 999.6
20260509065016 51 18 1.0 4.0 0.00 0.00 0.00 60 999.6
20260509064532 50 319 0.0 2.0 0.00 0.00 0.00 60 999.7
20260509064019 50 0 0.0 2.0 0.00 0.00 0.00 60 999.7
20260509063513 49 310 0.0 2.0 0.00 0.00 0.00 62 999.7
20260509063054 49 310 0.0 3.0 0.00 0.00 0.00 63 1000.0
20260509062512 48 310 0.0 4.0 0.00 0.00 0.00 63 1000.0
20260509062016 47 303 0.0 4.0 0.00 0.00 0.00 69 999.9
20260509061552 48 259 1.0 3.0 0.00 0.00 0.00 74 999.6
20260509061014 48 259 1.0 3.0 0.00 0.00 0.00 74 999.5
20260509060514 48 0 0.0 1.0 0.00 0.00 0.00 64 999.5
20260509060050 47 0 0.0 1.0 0.00 0.00 0.00 66 999.4
20260509055512 46 259 0.0 2.0 0.00 0.00 0.00 70 999.3
20260509055016 46 0 0.0 2.0 0.00 0.00 0.00 78 999.2
20260509054533 45 259 1.0 2.0 0.00 0.00 0.00 76 999.0
20260509054015 45 259 0.0 3.0 0.00 0.00 0.00 77 999.2
20260509053515 45 259 1.0 3.0 0.00 0.00 0.00 77 999.2
20260509053034 45 259 2.0 3.0 0.00 0.00 0.00 76 999.2
20260509052515 45 0 0.0 2.0 0.00 0.00 0.00 73 999.2
20260509052015 45 275 0.0 2.0 0.00 0.00 0.00 75 999.1
20260509051535 45 275 1.0 3.0 0.00 0.00 0.00 76 998.9
20260509051015 45 275 0.0 3.0 0.00 0.00 0.00 75 999.1
20260509050515 45 284 0.0 2.0 0.00 0.00 0.00 71 999.1
20260509050035 45 284 1.0 2.0 0.00 0.00 0.00 75 998.8
20260509045511 45 284 0.0 2.0 0.00 0.00 0.00 75 998.9
20260509045016 45 0 0.0 2.0 0.00 0.00 0.00 75 999.3
20260509044534 45 284 0.0 3.0 0.00 0.00 0.00 75 999.4
20260509044015 46 284 1.0 3.0 0.00 0.00 0.00 75 999.3
20260509043514 46 284 0.0 2.0 0.00 0.00 0.00 73 999.3
20260509043031 46 0 0.0 1.0 0.00 0.00 0.00 66 999.7
20260509042519 46 0 0.0 1.0 0.00 0.00 0.00 64 999.7
20260509042017 46 0 0.0 1.0 0.00 0.00 0.00 68 999.7
20260509041535 46 0 0.0 2.0 0.00 0.00 0.00 71 999.6
20260509041014 46 0 0.0 3.0 0.00 0.00 0.00 70 999.7
20260509040515 47 284 2.0 3.0 0.00 0.00 0.00 70 999.6
20260509040035 47 0 0.0 2.0 0.00 0.00 0.00 62 999.9
20260509035516 47 0 0.0 3.0 0.00 0.00 0.00 69 1000.1
20260509035013 48 291 1.0 3.0 0.00 0.00 0.00 70 1000.1
20260509034536 48 291 0.0 1.0 0.00 0.00 0.00 63 1000.1
20260509034011 49 0 0.0 0.0 0.00 0.00 0.00 57 1000.2
20260509033517 49 0 0.0 2.0 0.00 0.00 0.00 58 1000.3
20260509033034 50 0 0.0 2.0 0.00 0.00 0.00 66 1000.2
20260509032512 50 328 0.0 2.0 0.00 0.00 0.00 57 1000.4
20260509032014 51 0 0.0 1.0 0.00 0.00 0.00 59 1000.5
20260509031535 51 0 0.0 1.0 0.00 0.00 0.00 59 1000.5
20260509031012 51 0 0.0 0.0 0.00 0.00 0.00 54 1000.6
20260509030519 52 0 0.0 1.0 0.00 0.00 0.00 56 1000.5
20260509030038 52 0 0.0 1.0 0.00 0.00 0.00 46 1000.3
20260509025514 52 328 0.0 2.0 0.00 0.00 0.00 52 1000.3
20260509025017 53 328 1.0 2.0 0.00 0.00 0.00 57 1000.4
20260509024530 54 328 0.0 2.0 0.00 0.00 0.00 48 1000.3
20260509024014 54 0 0.0 0.0 0.00 0.00 0.00 49 1000.3
20260509023514 55 0 0.0 2.0 0.00 0.00 0.00 42 1000.4
20260509023033 55 0 0.0 2.0 0.00 0.00 0.00 43 1000.3
20260509022512 55 328 1.0 2.0 0.00 0.00 0.00 43 1000.3
20260509022014 56 328 0.0 2.0 0.00 0.00 0.00 44 1000.3
20260509021532 57 0 0.0 2.0 0.00 0.00 0.00 41 1000.1
20260509021014 57 0 0.0 1.0 0.00 0.00 0.00 40 1000.2
20260509020511 58 0 0.0 1.0 0.00 0.00 0.00 39 1000.2
20260509020047 58 0 0.0 1.0 0.00 0.00 0.00 40 1000.3
20260509015515 59 0 0.0 2.0 0.00 0.00 0.00 37 1000.4
20260509015013 59 0 0.0 2.0 0.00 0.00 0.00 37 1000.3
20260509014543 60 0 0.0 1.0 0.00 0.00 0.00 37 1000.2
20260509014012 60 0 0.0 2.0 0.00 0.00 0.00 37 1000.2
20260509013513 60 0 0.0 3.0 0.00 0.00 0.00 36 1000.2
20260509013037 61 328 1.0 3.0 0.00 0.00 0.00 36 1000.2
20260509012513 61 330 0.0 2.0 0.00 0.00 0.00 35 1000.2
20260509012017 62 0 0.0 2.0 0.00 0.00 0.00 35 1000.2
20260509011531 62 339 0.0 5.0 0.00 0.00 0.00 34 1000.0
20260509011011 62 309 2.0 5.0 0.00 0.00 0.00 33 1000.0
20260509010516 63 292 1.0 8.0 0.00 0.00 0.00 33 999.8
20260509010032 63 312 3.0 8.0 0.00 0.00 0.00 32 999.8
20260509005514 63 302 2.0 7.0 0.00 0.00 0.00 32 999.8
20260509005021 63 250 2.0 8.0 0.00 0.00 0.00 32 999.7
20260509004531 64 343 2.0 8.0 0.00 0.00 0.00 30 999.7
20260509004013 64 298 2.0 9.0 0.00 0.00 0.00 31 999.6
20260509003515 64 321 3.0 12.0 0.00 0.00 0.00 30 999.7
20260509003041 64 308 4.0 12.0 0.00 0.00 0.00 30 999.6
20260509002513 65 309 2.0 11.0 0.00 0.00 0.00 30 999.4
20260509002013 65 315 4.0 11.0 0.00 0.00 0.00 29 999.4
20260509001531 65 282 3.0 10.0 0.00 0.00 0.00 29 999.6
20260509001013 66 296 4.0 10.0 0.00 0.00 0.00 29 999.3
20260509000514 66 319 2.0 8.0 0.00 0.00 0.00 30 999.2
20260509000031 66 315 4.0 12.0 0.00 0.00 0.00 29 999.3
20260508235517 67 323 3.0 12.0 0.00 0.00 0.00 29 999.3
20260508235015 67 318 6.0 12.0 0.00 0.00 0.00 28 999.2
20260508234532 67 318 4.0 12.0 0.00 0.00 0.00 28 999.2
20260508234014 67 277 3.0 10.0 0.00 0.00 0.00 28 999.1
20260508233517 68 302 4.0 10.0 0.00 0.00 0.00 28 999.3
20260508233032 68 336 3.0 10.0 0.00 0.00 0.00 28 999.2
20260508232520 68 315 4.0 11.0 0.00 0.00 0.00 28 999.1
20260508232019 68 314 4.0 11.0 0.00 0.00 0.00 27 999.1
20260508231532 68 336 3.0 10.0 0.00 0.00 0.00 26 999.0
20260508231015 68 311 3.0 15.0 0.00 0.00 0.00 26 999.1
20260508230514 68 292 5.0 15.0 0.00 0.00 0.00 25 999.1
20260508230031 68 296 5.0 13.0 0.00 0.00 0.00 26 999.1
20260508225512 69 298 5.0 11.0 0.00 0.00 0.00 25 998.8
20260508225013 68 323 4.0 12.0 0.00 0.00 0.00 26 998.9
20260508224535 69 302 5.0 12.0 0.00 0.00 0.00 27 998.8
20260508224016 69 317 6.0 11.0 0.00 0.00 0.00 24 998.9
20260508223517 69 275 5.0 10.0 0.00 0.00 0.00 27 998.9
20260508223039 69 321 3.0 10.0 0.00 0.00 0.00 25 998.9
20260508222514 69 284 4.0 12.0 0.00 0.00 0.00 24 998.9
20260508222016 69 291 5.0 12.0 0.00 0.00 0.00 26 998.6
20260508221532 69 281 6.0 13.0 0.00 0.00 0.00 26 998.9
20260508221021 69 286 6.0 13.0 0.00 0.00 0.00 25 998.7
20260508220513 69 294 4.0 11.0 0.00 0.00 0.00 25 998.8
20260508220034 69 294 3.0 10.0 0.00 0.00 0.00 26 998.7
20260508215516 69 294 4.0 11.0 0.00 0.00 0.00 27 998.7
20260508215015 69 250 6.0 15.0 0.00 0.00 0.00 28 998.7
20260508214534 69 285 6.0 15.0 0.00 0.00 0.00 27 998.8
20260508214016 70 305 5.0 12.0 0.00 0.00 0.00 26 998.9
20260508213513 69 296 5.0 12.0 0.00 0.00 0.00 25 999.0
20260508213032 68 280 5.0 11.0 0.00 0.00 0.00 30 998.7
20260508212513 68 273 4.0 14.0 0.00 0.00 0.00 28 998.7
20260508212016 69 297 5.0 14.0 0.00 0.00 0.00 28 998.9
20260508211533 69 320 5.0 10.0 0.00 0.00 0.00 27 998.9
20260508211016 69 319 2.0 14.0 0.00 0.00 0.00 26 998.9
20260508210516 69 279 7.0 14.0 0.00 0.00 0.00 28 999.0
20260508210033 70 296 3.0 11.0 0.00 0.00 0.00 28 999.0
20260508205514 70 296 2.0 10.0 0.00 0.00 0.00 28 999.1
20260508205023 70 286 4.0 8.0 0.00 0.00 0.00 26 999.1
20260508204536 69 284 3.0 8.0 0.00 0.00 0.00 30 999.1
20260508204013 69 279 3.0 11.0 0.00 0.00 0.00 30 999.1
20260508203514 68 271 5.0 19.0 0.00 0.00 0.00 28 999.2
20260508203038 68 265 10.0 19.0 0.00 0.00 0.00 28 999.3
20260508202516 68 304 6.0 15.0 0.00 0.00 0.00 31 999.4
20260508202015 68 259 5.0 12.0 0.00 0.00 0.00 30 999.5
20260508201539 69 250 5.0 9.0 0.00 0.00 0.00 28 999.4
20260508201013 69 248 4.0 9.0 0.00 0.00 0.00 30 999.5
20260508200514 68 273 3.0 9.0 0.00 0.00 0.00 31 999.6
20260508200037 67 278 3.0 11.0 0.00 0.00 0.00 31 999.7
20260508195518 66 273 4.0 20.0 0.00 0.00 0.00 29 999.7
20260508195015 65 263 9.0 20.0 0.00 0.00 0.00 32 999.7
20260508194536 67 246 7.0 15.0 0.00 0.00 0.00 30 999.8
20260508194013 67 261 9.0 23.0 0.00 0.00 0.00 34 999.9
20260508193515 67 15 5.0 23.0 0.00 0.00 0.00 29 1000.0
20260508193032 66 284 4.0 14.0 0.00 0.00 0.00 33 1000.1
20260508192515 66 279 5.0 14.0 0.00 0.00 0.00 27 1000.1
20260508192021 66 267 3.0 10.0 0.00 0.00 0.00 31 1000.1
20260508191537 65 338 3.0 17.0 0.00 0.00 0.00 31 1000.3
20260508191014 64 258 5.0 20.0 0.00 0.00 0.00 30 1000.3
20260508190514 65 274 10.0 20.0 0.00 0.00 0.00 29 1000.3
20260508190036 65 246 6.0 12.0 0.00 0.00 0.00 31 1000.3
20260508185513 64 229 7.0 12.0 0.00 0.00 0.00 31 1000.4
20260508185015 64 246 3.0 9.0 0.00 0.00 0.00 30 1000.7
20260508184534 65 257 5.0 9.0 0.00 0.00 0.00 32 1000.7
20260508184014 65 0 1.0 9.0 0.00 0.00 0.00 28 1000.7
20260508183515 65 233 2.0 9.0 0.00 0.00 0.00 28 1000.8
20260508183036 66 268 3.0 9.0 0.00 0.00 0.00 29 1000.9
20260508182514 65 259 3.0 8.0 0.00 0.00 0.00 29 1001.0
20260508182014 64 279 3.0 7.0 0.00 0.00 0.00 28 1001.1
20260508181536 64 275 2.0 7.0 0.00 0.00 0.00 29 1001.1
20260508181014 63 297 3.0 8.0 0.00 0.00 0.00 31 1001.2
20260508180516 62 256 3.0 12.0 0.00 0.00 0.00 31 1001.2
20260508180032 62 251 6.0 12.0 0.00 0.00 0.00 34 1001.2
20260508175512 62 284 6.0 12.0 0.00 0.00 0.00 34 1001.3
20260508175016 62 259 8.0 12.0 0.00 0.00 0.00 34 1001.3
20260508174543 63 261 6.0 11.0 0.00 0.00 0.00 36 1001.4
20260508174013 64 271 4.0 7.0 0.00 0.00 0.00 31 1001.6
20260508173513 64 240 2.0 10.0 0.00 0.00 0.00 32 1001.6
20260508173040 64 292 4.0 10.0 0.00 0.00 0.00 28 1001.6
20260508172512 64 267 3.0 8.0 0.00 0.00 0.00 29 1001.8
20260508172015 64 306 4.0 14.0 0.00 0.00 0.00 30 1001.8
20260508171532 64 274 7.0 14.0 0.00 0.00 0.00 28 1001.9
20260508171011 64 258 4.0 9.0 0.00 0.00 0.00 28 1002.1
20260508170511 64 252 4.0 9.0 0.00 0.00 0.00 29 1002.0
20260508170033 64 273 3.0 9.0 0.00 0.00 0.00 29 1002.1
20260508165512 64 265 3.0 10.0 0.00 0.00 0.00 31 1002.2
20260508165017 64 300 1.0 10.0 0.00 0.00 0.00 31 1002.2
20260508164530 64 255 2.0 7.0 0.00 0.00 0.00 30 1002.4
20260508164012 63 0 1.0 8.0 0.00 0.00 0.00 29 1002.3
20260508163514 62 279 4.0 8.0 0.00 0.00 0.00 31 1002.3
20260508163034 62 273 3.0 10.0 0.00 0.00 0.00 35 1002.4
20260508162547 62 268 6.0 10.0 0.00 0.00 0.00 31 1002.4
20260508162013 62 255 3.0 10.0 0.00 0.00 0.00 31 1002.3
20260508161534 62 268 4.0 9.0 0.00 0.00 0.00 32 1002.6
20260508161012 62 250 3.0 9.0 0.00 0.00 0.00 28 1002.4
20260508160515 62 292 4.0 11.0 0.00 0.00 0.00 30 1002.6
20260508160034 62 294 3.0 11.0 0.00 0.00 0.00 31 1002.5
20260508155514 61 271 3.0 8.0 0.00 0.00 0.00 34 1002.6
20260508155013 61 267 2.0 6.0 0.00 0.00 0.00 38 1002.6
20260508154534 61 279 3.0 7.0 0.00 0.00 0.00 38 1002.6
20260508154013 61 250 2.0 7.0 0.00 0.00 0.00 36 1002.7
20260508153514 60 291 3.0 7.0 0.00 0.00 0.00 35 1002.8
20260508153030 60 307 1.0 8.0 0.00 0.00 0.00 37 1002.9
20260508152515 59 256 3.0 8.0 0.00 0.00 0.00 37 1002.8
20260508152014 59 240 2.0 7.0 0.00 0.00 0.00 37 1002.9
20260508151536 58 275 3.0 7.0 0.00 0.00 0.00 36 1003.1
20260508151011 58 264 1.0 7.0 0.00 0.00 0.00 41 1003.0
20260508150516 57 246 3.0 7.0 0.00 0.00 0.00 38 1003.2
20260508150035 57 268 2.0 8.0 0.00 0.00 0.00 41 1003.2
20260508145515 56 261 3.0 8.0 0.00 0.00 0.00 39 1003.3
20260508145014 55 267 5.0 7.0 0.00 0.00 0.00 42 1003.2
20260508144533 55 286 2.0 7.0 0.00 0.00 0.00 46 1003.5
20260508144016 54 269 3.0 7.0 0.00 0.00 0.00 45 1003.5
20260508143518 54 252 2.0 8.0 0.00 0.00 0.00 45 1003.4
20260508143034 53 250 4.0 8.0 0.00 0.00 0.00 43 1003.5
20260508142514 53 281 5.0 8.0 0.00 0.00 0.00 46 1003.6
20260508142013 52 261 3.0 8.0 0.00 0.00 0.00 47 1003.6
20260508141604 52 263 4.0 8.0 0.00 0.00 0.00 49 1003.6
20260508141015 52 267 3.0 6.0 0.00 0.00 0.00 47 1003.6
20260508140516 52 277 2.0 8.0 0.00 0.00 0.00 46 1003.7
20260508140031 51 268 2.0 8.0 0.00 0.00 0.00 47 1003.6
20260508135517 51 257 3.0 9.0 0.00 0.00 0.00 51 1003.7
20260508135014 51 259 4.0 9.0 0.00 0.00 0.00 52 1003.6
20260508134548 50 258 6.0 9.0 0.00 0.00 0.00 53 1003.7
20260508134010 50 273 4.0 8.0 0.00 0.00 0.00 55 1003.8
20260508133517 50 248 3.0 8.0 0.00 0.00 0.00 52 1003.7
20260508133033 49 265 3.0 8.0 0.00 0.00 0.00 52 1003.6
20260508132513 49 253 4.0 7.0 0.00 0.00 0.00 56 1003.7
20260508132015 49 270 3.0 6.0 0.00 0.00 0.00 52 1003.9
20260508131535 48 265 2.0 7.0 0.00 0.00 0.00 57 1003.7
20260508131011 48 258 4.0 7.0 0.00 0.00 0.00 55 1003.9
20260508130513 48 273 1.0 8.0 0.00 0.00 0.00 50 1003.9
20260508130033 48 272 3.0 8.0 0.00 0.00 0.00 53 1004.0
20260508125514 48 261 4.0 7.0 0.00 0.00 0.00 56 1003.9
20260508125014 48 269 4.0 8.0 0.00 0.00 0.00 53 1003.9
20260508124532 48 267 4.0 8.0 0.00 0.00 0.00 56 1003.9
20260508124014 47 261 4.0 8.0 0.00 0.00 0.00 52 1004.0
20260508123517 47 258 3.0 7.0 0.00 0.00 0.00 53 1004.0
20260508123045 47 272 4.0 7.0 0.00 0.00 0.00 53 1003.9
20260508122514 47 263 3.0 7.0 0.00 0.00 0.00 53 1004.0
20260508122015 47 266 2.0 6.0 0.00 0.00 0.00 55 1004.0
20260508121534 46 258 2.0 6.0 0.00 0.00 0.00 54 1004.0